Location: Harmony
(28.2000°N, 81.1500°W)
Time: 05:05:26
(UTC-05:00)

Skynet4D Del rocket - Pass Details

Date: 18 December 2017
Orbit: 763 x 1291 km, 26.9° (Epoch: 22 January)

Event Time Altitude Azimuth Distance (km) Brightness Sun altitude
Rises 19:35:15 0° 275° (W) 3,590 8.1 -26.3°
Reaches altitude 10° 19:38:03 10° 272° (W) 2,565 7.1 -26.9°
Maximum altitude 19:43:58 56° 195° (SSW) 970 4.0 -28.2°
Enters shadow 19:44:27 54° 174° (S) 983 4.0 -28.3°
